M I D A S
Marine Information and Data Acquisition System
Tripno 977 of the Zeeleeuw from 2005-10-24 06:41:04 to 2005-10-24 14:23:06
Back to CruiseResearch ActivitiesStationsMapUnderway DataData graphs

EquipmentUnitsComments
TimeDGPSUTC
LatitudeDGPSDM.mWGS84
LongitudeDGPSDM.mWGS84
SpeedMeteo Stationm/sRelative wind speed
DirectionMeteo StationdegRelative wind direction
TemperatureMeteo Stationdeg CelciusAir temperature
PressureMeteo StationPaAtmospheric pressure
HumidityMeteo Station%Relative humidity
Missing or incorrect values are displayed as -999
Metereological data collected by the RV Zeeleeuw from 2005-10-24 06:42:02 to 2005-10-24 14:33:23
Time Latitude Longitude Speed Direction Temperature Pressure Humidity
2005-10-24 06:43 51°13.616 2°56.036 -999 75 11.3 101180 99
2005-10-24 06:44 51°13.643 2°55.941 -999 74 11.3 101170 99
2005-10-24 06:45 51°13.676 2°55.832 -999 99 11.3 101170 99
2005-10-24 06:46 51°13.683 2°55.753 -999 119 11.3 101170 99
2005-10-24 06:47 51°13.707 2°55.763 -999 177 11.3 101170 99
2005-10-24 06:48 51°13.775 2°55.692 -999 264 11.3 101180 99
2005-10-24 06:49 51°13.901 2°55.578 -999 255 11.3 101180 99
2005-10-24 06:50 51°14.049 2°55.474 -999 176 11.3 101180 99
2005-10-24 06:51 51°14.204 2°55.347 -999 288 11.3 101170 99
2005-10-24 06:52 51°14.334 2°55.12 -999 321 11.3 101170 100
2005-10-24 06:53 51°14.466 2°54.89 -999 304 11.3 101160 99
2005-10-24 06:54 51°14.565 2°54.608 -999 290 11.3 101130 100
2005-10-24 06:55 51°14.657 2°54.305 -999 294 11.4 101140 100
2005-10-24 06:56 51°14.742 2°53.994 -999 299 11.4 101140 100
2005-10-24 06:57 51°14.812 2°53.676 -999 305 11.4 101130 100
2005-10-24 06:58 51°14.873 2°53.349 -999 297 11.5 101120 100
2005-10-24 06:59 51°14.925 2°53.018 -999 308 11.6 101130 100
2005-10-24 07:00 51°14.961 2°52.681 -999 307 11.6 101120 100
2005-10-24 07:01 51°14.96 2°52.344 -999 311 11.7 101110 100
2005-10-24 07:02 51°14.961 2°52.005 -999 305 11.7 101110 100
2005-10-24 07:03 51°14.964 2°51.666 -999 232 11.7 101110 100
2005-10-24 07:04 51°14.962 2°51.33 -999 312 11.8 101120 100
2005-10-24 07:05 51°14.929 2°51.001 -999 311 11.8 101090 100
2005-10-24 07:06 51°14.878 2°50.678 -999 227 11.8 101090 100
2005-10-24 07:07 51°14.821 2°50.357 -999 309 11.8 101080 100
2005-10-24 07:08 51°14.772 2°50.032 -999 43 11.8 101080 100
2005-10-24 07:09 51°14.721 2°49.708 -999 319 11.9 101090 100
2005-10-24 07:10 51°14.658 2°49.392 -999 326 11.9 101080 100
2005-10-24 07:11 51°14.589 2°49.079 -999 327 11.9 101090 100
2005-10-24 07:12 51°14.519 2°48.768 -999 321 11.9 101090 100
2005-10-24 07:13 51°14.447 2°48.457 -999 326 12 101080 100
2005-10-24 07:14 51°14.376 2°48.146 -999 318 12 101080 100
2005-10-24 07:15 51°14.305 2°47.834 -999 321 12 101080 100
2005-10-24 07:16 51°14.239 2°47.52 -999 39 12 101060 100
2005-10-24 07:17 51°14.219 2°47.187 -999 309 12 101060 100
2005-10-24 07:18 51°14.214 2°46.851 -999 311 12.1 101070 100
2005-10-24 07:19 51°14.208 2°46.515 -999 309 12.1 101070 100
2005-10-24 07:20 51°14.204 2°46.178 -999 312 12.1 101080 100
2005-10-24 07:21 51°14.198 2°45.843 -999 314 12.2 101070 100
2005-10-24 07:22 51°14.193 2°45.508 -999 314 12.2 101080 100
2005-10-24 07:23 51°14.187 2°45.173 -999 303 12.2 101050 100
2005-10-24 07:24 51°14.181 2°44.84 -999 229 12.3 101050 100
2005-10-24 07:25 51°14.187 2°44.504 -999 299 12.3 101050 100
2005-10-24 07:26 51°14.222 2°44.164 -999 310 12.4 101070 100
2005-10-24 07:27 51°14.249 2°43.827 -999 295 12.3 101050 100
2005-10-24 07:28 51°14.276 2°43.491 -999 304 12.5 101060 100
2005-10-24 07:29 51°14.303 2°43.155 -999 307 12.5 101050 100
2005-10-24 07:30 51°14.33 2°42.819 -999 300 12.5 101050 100
2005-10-24 07:31 51°14.357 2°42.484 -999 305 12.5 101040 100
2005-10-24 07:32 51°14.383 2°42.15 -999 304 12.5 101040 100
2005-10-24 07:33 51°14.409 2°41.817 -999 315 12.6 101060 100
2005-10-24 07:34 51°14.437 2°41.483 -999 312 12.6 101040 100
2005-10-24 07:35 51°14.466 2°41.149 -999 302 12.6 101040 100
2005-10-24 07:36 51°14.488 2°40.812 -999 307 12.7 101050 100
2005-10-24 07:37 51°14.535 2°40.48 -999 298 12.7 101050 100
2005-10-24 07:38 51°14.59 2°40.151 -999 303 12.7 101060 100
2005-10-24 07:39 51°14.643 2°39.821 -999 307 12.7 101040 100
2005-10-24 07:40 51°14.695 2°39.49 -999 301 12.8 101050 100
2005-10-24 07:41 51°14.747 2°39.159 -999 309 12.8 101040 100
2005-10-24 07:42 51°14.8 2°38.829 -999 305 12.8 101020 100
2005-10-24 07:43 51°14.853 2°38.503 -999 302 12.9 101020 100
2005-10-24 07:44 51°14.905 2°38.174 -999 309 13 101040 100
2005-10-24 07:45 51°14.957 2°37.848 -999 312 13 101050 100
2005-10-24 07:46 51°15.01 2°37.522 -999 307 13.1 101030 100
2005-10-24 07:47 51°15.063 2°37.195 -999 304 13.1 101040 100
2005-10-24 07:48 51°15.116 2°36.867 -999 307 13 101030 100
2005-10-24 07:49 51°15.171 2°36.539 -999 306 13.1 101020 100
2005-10-24 07:50 51°15.23 2°36.213 -999 308 13.1 101030 100
2005-10-24 07:51 51°15.314 2°35.899 -999 295 13.1 101030 100
2005-10-24 07:52 51°15.406 2°35.589 -999 300 13.1 101030 100
2005-10-24 07:53 51°15.512 2°35.291 -999 296 13.1 101040 100
2005-10-24 07:54 51°15.617 2°34.992 -999 298 13.2 101050 100
2005-10-24 07:55 51°15.72 2°34.691 -999 291 13.2 101040 100
2005-10-24 07:56 51°15.822 2°34.389 -999 285 13.2 101040 100
2005-10-24 07:57 51°15.937 2°34.098 -999 294 13.2 101040 100
2005-10-24 07:58 51°16.065 2°33.822 -999 279 13.3 101050 100
2005-10-24 07:59 51°16.2 2°33.553 -999 289 13.3 101050 100
2005-10-24 08:00 51°16.34 2°33.286 -999 281 13.4 101050 100
2005-10-24 08:01 51°16.493 2°33.033 -999 273 13.4 101050 100
2005-10-24 08:02 51°16.648 2°32.79 -999 291 13.5 101060 100
2005-10-24 08:03 51°16.802 2°32.547 -999 281 13.5 101050 100
2005-10-24 08:04 51°16.956 2°32.305 -999 278 13.5 101050 100
2005-10-24 08:05 51°17.109 2°32.059 -999 280 13.5 101040 100
2005-10-24 08:06 51°17.263 2°31.815 -999 293 13.5 101040 100
2005-10-24 08:07 51°17.417 2°31.571 -999 280 13.6 101040 100
2005-10-24 08:08 51°17.569 2°31.324 -999 290 13.6 101040 100
2005-10-24 08:09 51°17.723 2°31.08 -999 285 13.6 101040 100
2005-10-24 08:10 51°17.871 2°30.83 -999 296 13.6 101060 100
2005-10-24 08:11 51°18.017 2°30.571 -999 288 13.6 101030 100
2005-10-24 08:12 51°18.158 2°30.31 -999 286 13.6 101030 100
2005-10-24 08:13 51°18.3 2°30.047 -999 285 13.7 101030 100
2005-10-24 08:14 51°18.441 2°29.784 -999 289 13.7 101010 100
2005-10-24 08:15 51°18.581 2°29.524 -999 284 13.8 101050 100
2005-10-24 08:16 51°18.723 2°29.267 -999 286 13.8 101040 100
2005-10-24 08:17 51°18.86 2°29.001 -999 296 13.8 101020 100
2005-10-24 08:18 51°18.931 2°28.699 -999 324 13.9 101000 100
2005-10-24 08:19 51°18.836 2°28.447 18.5 6 14 101000 100
2005-10-24 08:20 51°18.657 2°28.327 19.8 2 14.1 101030 100
2005-10-24 08:21 51°18.491 2°28.155 18.6 1 14.1 101010 100
2005-10-24 08:22 51°18.323 2°27.984 18.8 2 14.2 101010 100
2005-10-24 08:23 51°18.157 2°27.817 18.2 2 14.2 101010 100
2005-10-24 08:24 51°18.056 2°27.675 17.1 339 14.2 101020 100
2005-10-24 08:25 51°18.045 2°27.611 12.2 318 14.3 101020 100
2005-10-24 08:26 51°18.066 2°27.608 12.3 298 14.3 101030 100
2005-10-24 08:27 51°18.089 2°27.622 12.4 263 14.4 101070 100
2005-10-24 08:28 51°18.109 2°27.641 10.4 250 14.4 101080 100
2005-10-24 08:29 51°18.129 2°27.658 10.8 242 14.4 101090 100
2005-10-24 08:30 51°18.16 2°27.662 10.9 241 14.4 101060 100
2005-10-24 08:31 51°18.249 2°27.709 8.7 158 14.6 101060 100
2005-10-24 08:32 51°18.381 2°27.885 5.5 153 14.6 101050 100
2005-10-24 08:33 51°18.532 2°28.089 5.7 162 14.6 101060 100
2005-10-24 08:34 51°18.681 2°28.303 -999 150 14.6 101050 100
2005-10-24 08:35 51°18.811 2°28.549 3.9 146 14.7 101060 100
2005-10-24 08:36 51°18.937 2°28.793 4.9 152 14.7 101060 100
2005-10-24 08:37 51°19.004 2°28.988 9.7 118 14.7 101050 99
2005-10-24 08:38 51°19.002 2°29.138 11.6 96 14.7 101030 99
2005-10-24 08:39 51°18.963 2°29.25 14.7 68 14.8 101030 99
2005-10-24 08:40 51°18.918 2°29.328 14.3 64 14.8 101040 99
2005-10-24 08:41 51°18.855 2°29.346 14.6 21 14.8 101020 99
2005-10-24 08:42 51°18.788 2°29.297 14.6 3 14.8 101010 99
2005-10-24 08:43 51°18.746 2°29.269 14.3 15 14.9 101040 99
2005-10-24 08:44 51°18.706 2°29.243 12.9 7 14.9 101050 99
2005-10-24 08:45 51°18.664 2°29.207 15.7 7 15 101030 99
2005-10-24 08:46 51°18.63 2°29.175 0.1 13 15 101050 98
2005-10-24 08:47 51°18.599 2°29.155 -999 18 15 101040 98
2005-10-24 08:48 51°18.561 2°29.128 -999 9 15.1 101050 98
2005-10-24 08:49 51°18.524 2°29.096 -999 9 15.1 101050 98
2005-10-24 08:50 51°18.488 2°29.066 -999 17 15 101040 98
2005-10-24 08:51 51°18.452 2°29.037 -999 9 15 101050 98
2005-10-24 08:52 51°18.412 2°28.999 -999 18 15 101050 98
2005-10-24 08:53 51°18.375 2°28.969 -999 5 15 101040 98
2005-10-24 08:54 51°18.34 2°28.933 -999 14 15.1 101050 98
2005-10-24 08:55 51°18.304 2°28.895 -999 7 15.1 101050 97
2005-10-24 08:56 51°18.267 2°28.865 -999 17 15.1 101040 97
2005-10-24 08:57 51°18.23 2°28.836 -999 9 15.2 101040 97
2005-10-24 08:58 51°18.2 2°28.804 -999 7 15.2 101040 97
2005-10-24 08:59 51°18.167 2°28.767 -999 10 15.1 101050 97
2005-10-24 09:00 51°18.13 2°28.734 -999 13 15.2 101040 97
2005-10-24 09:01 51°18.096 2°28.704 -999 10 15.1 101050 97
2005-10-24 09:02 51°18.065 2°28.669 -999 7 15.2 101050 97
2005-10-24 09:03 51°18.031 2°28.626 -999 14 15.2 101060 97
2005-10-24 09:04 51°17.993 2°28.594 -999 17 15.2 101050 97
2005-10-24 09:05 51°17.956 2°28.567 -999 14 15.2 101060 97
2005-10-24 09:06 51°17.919 2°28.53 -999 13 15.2 101050 97
2005-10-24 09:07 51°17.882 2°28.496 -999 23 15.3 101050 97
2005-10-24 09:08 51°17.844 2°28.467 -999 21 15.2 101040 97
2005-10-24 09:09 51°17.81 2°28.438 -999 10 15.2 101030 97
2005-10-24 09:10 51°17.774 2°28.406 -999 22 15.3 101050 97
2005-10-24 09:11 51°17.736 2°28.383 -999 22 15.3 101050 97
2005-10-24 09:12 51°17.7 2°28.364 -999 22 15.3 101050 98
2005-10-24 09:13 51°17.661 2°28.339 -999 22 15.3 101050 98
2005-10-24 09:14 51°17.621 2°28.31 -999 27 15.3 101040 98
2005-10-24 09:15 51°17.583 2°28.288 -999 16 15.4 101050 98
2005-10-24 09:16 51°17.546 2°28.263 -999 20 15.3 101040 98
2005-10-24 09:17 51°17.514 2°28.242 -999 20 15.3 101050 98
2005-10-24 09:18 51°17.482 2°28.217 -999 19 15.3 101060 98
2005-10-24 09:19 51°17.448 2°28.184 -999 15 15.4 101060 98
2005-10-24 09:20 51°17.41 2°28.144 -999 15 15.4 101050 98
2005-10-24 09:21 51°17.37 2°28.099 -999 1 15.4 101050 98
2005-10-24 09:22 51°17.341 2°28.051 -999 5 15.4 101030 98
2005-10-24 09:23 51°17.312 2°27.998 -999 352 15.4 101050 98
2005-10-24 09:24 51°17.287 2°27.94 -999 360 15.4 101030 98
2005-10-24 09:25 51°17.266 2°27.882 -999 3 15.4 101040 98
2005-10-24 09:26 51°17.262 2°27.863 -999 7 15.4 101060 98
2005-10-24 09:27 51°17.278 2°27.869 -999 38 15.4 101060 98
2005-10-24 09:28 51°17.306 2°27.876 -999 69 15.4 101040 98
2005-10-24 09:29 51°17.326 2°27.884 0.1 128 15.3 101030 98
2005-10-24 09:30 51°17.331 2°28.031 -999 117 15.3 101050 99
2005-10-24 09:31 51°17.285 2°28.264 -999 90 15.2 101040 99
2005-10-24 09:32 51°17.225 2°28.518 -999 81 15.2 101030 99
2005-10-24 09:33 51°17.164 2°28.771 -999 88 15.2 101030 99
2005-10-24 09:34 51°17.102 2°29.027 -999 89 15.1 101030 99
2005-10-24 09:35 51°17.043 2°29.281 -999 91 15.1 101020 99
2005-10-24 09:36 51°16.986 2°29.547 -999 88 15 101030 99
2005-10-24 09:37 51°16.92 2°29.853 -999 84 15 101020 100
2005-10-24 09:38 51°16.848 2°30.171 -999 84 15 101030 100
2005-10-24 09:39 51°16.772 2°30.488 -999 86 15 101010 100
2005-10-24 09:40 51°16.699 2°30.806 -999 85 14.9 101010 100
2005-10-24 09:41 51°16.625 2°31.124 -999 86 15 101030 100
2005-10-24 09:42 51°16.548 2°31.438 -999 77 15 101020 100
2005-10-24 09:43 51°16.419 2°31.699 -999 71 15 101000 100
2005-10-24 09:44 51°16.272 2°31.931 -999 64 15.1 101000 100
2005-10-24 09:45 51°16.114 2°32.147 -999 59 15.1 101010 100
2005-10-24 09:46 51°15.955 2°32.361 0.1 52 15.1 101010 100
2005-10-24 09:47 51°15.792 2°32.542 -999 50 15 101010 100
2005-10-24 09:48 51°15.632 2°32.719 -999 43 15 101020 100
2005-10-24 09:49 51°15.459 2°32.877 -999 40 14.9 101030 100
2005-10-24 09:50 51°15.282 2°33.035 -999 46 14.8 101030 100
2005-10-24 09:51 51°15.103 2°33.199 -999 43 14.8 101000 100
2005-10-24 09:52 51°14.922 2°33.364 -999 43 14.8 101010 100
2005-10-24 09:53 51°14.739 2°33.516 -999 46 14.8 101020 100
2005-10-24 09:54 51°14.549 2°33.654 -999 47 14.8 101030 100
2005-10-24 09:55 51°14.36 2°33.793 -999 43 14.8 101040 100
2005-10-24 09:56 51°14.185 2°33.922 -999 42 14.8 101030 100
2005-10-24 09:57 51°14.076 2°33.965 -999 37 14.7 101060 100
2005-10-24 09:58 51°14.012 2°33.981 -999 25 14.7 101060 100
2005-10-24 09:59 51°14.011 2°33.989 -999 36 14.7 101060 100
2005-10-24 10:00 51°14.023 2°33.996 -999 79 14.7 101070 100
2005-10-24 10:01 51°14.036 2°34.001 -999 101 14.7 101070 100
2005-10-24 10:02 51°14.045 2°34.009 -999 112 14.7 101080 100
2005-10-24 10:03 51°14.048 2°34.05 -999 104 14.7 101080 100
2005-10-24 10:04 51°14.048 2°34.294 -999 109 14.7 101080 100
2005-10-24 10:05 51°14.07 2°34.629 -999 89 14.7 101090 100
2005-10-24 10:06 51°14.1 2°34.964 -999 93 14.6 101090 100
2005-10-24 10:07 51°14.131 2°35.305 -999 100 14.7 101080 100
2005-10-24 10:08 51°14.173 2°35.638 -999 100 14.6 101090 100
2005-10-24 10:09 51°14.204 2°35.972 -999 100 14.6 101090 100
2005-10-24 10:10 51°14.213 2°36.309 -999 91 14.6 101090 100
2005-10-24 10:11 51°14.229 2°36.638 -999 98 14.6 101090 100
2005-10-24 10:12 51°14.23 2°36.97 -999 93 14.6 101090 100
2005-10-24 10:13 51°14.232 2°37.302 -999 94 14.6 101080 100
2005-10-24 10:14 51°14.228 2°37.63 -999 94 14.6 101090 100
2005-10-24 10:15 51°14.217 2°37.964 -999 89 14.6 101080 100
2005-10-24 10:16 51°14.208 2°38.295 -999 93 14.6 101080 100
2005-10-24 10:17 51°14.176 2°38.625 -999 81 14.6 101070 100
2005-10-24 10:18 51°14.094 2°38.916 -999 54 14.6 101080 100
2005-10-24 10:19 51°13.902 2°39.019 -999 26 14.7 101060 100
2005-10-24 10:20 51°13.702 2°38.93 17.7 6 14.7 101060 100
2005-10-24 10:21 51°13.513 2°38.771 16.8 6 14.7 101060 100
2005-10-24 10:22 51°13.324 2°38.611 16.7 1 14.7 101070 100
2005-10-24 10:23 51°13.136 2°38.45 16.7 6 14.7 101080 100
2005-10-24 10:24 51°12.947 2°38.291 17.5 2 14.7 101070 100
2005-10-24 10:25 51°12.76 2°38.129 17.7 5 14.7 101080 100
2005-10-24 10:26 51°12.571 2°37.968 15 7 14.7 101080 100
2005-10-24 10:27 51°12.382 2°37.806 16.4 3 14.7 101070 100
2005-10-24 10:28 51°12.193 2°37.645 14.6 5 14.7 101070 100
2005-10-24 10:29 51°12.003 2°37.482 15.9 3 14.7 101060 100
2005-10-24 10:30 51°11.815 2°37.314 15.2 6 14.7 101070 100
2005-10-24 10:31 51°11.627 2°37.139 15.6 358 14.7 101100 100
2005-10-24 10:32 51°11.44 2°36.965 15.9 -999 14.7 101060 100
2005-10-24 10:33 51°11.253 2°36.79 16.9 5 14.7 101090 100
2005-10-24 10:34 51°11.067 2°36.615 14.3 4 14.8 101070 100
2005-10-24 10:35 51°10.88 2°36.441 -999 4 14.8 101070 100
2005-10-24 10:36 51°10.707 2°36.239 0.2 353 14.8 101090 100
2005-10-24 10:37 51°10.548 2°36.013 -999 355 14.8 101070 100
2005-10-24 10:38 51°10.387 2°35.787 -999 355 14.8 101050 100
2005-10-24 10:39 51°10.226 2°35.559 -999 356 14.8 101080 100
2005-10-24 10:40 51°10.066 2°35.332 -999 356 14.9 101070 99
2005-10-24 10:41 51°9.906 2°35.098 -999 357 14.9 101060 99
2005-10-24 10:42 51°9.747 2°34.858 -999 355 14.9 101050 99
2005-10-24 10:43 51°9.588 2°34.615 -999 349 14.9 101060 99
2005-10-24 10:44 51°9.43 2°34.371 -999 358 14.9 101060 99
2005-10-24 10:45 51°9.271 2°34.127 -999 354 14.9 101080 99
2005-10-24 10:46 51°9.112 2°33.886 -999 353 14.9 101070 99
2005-10-24 10:47 51°8.952 2°33.645 -999 1 14.8 101040 99
2005-10-24 10:48 51°8.792 2°33.401 -999 357 14.8 101080 99
2005-10-24 10:49 51°8.633 2°33.159 -999 354 14.8 101050 99
2005-10-24 10:50 51°8.474 2°32.918 -999 354 14.8 101070 99
2005-10-24 10:51 51°8.314 2°32.676 -999 354 14.8 101070 100
2005-10-24 10:52 51°8.154 2°32.434 -999 354 14.8 101070 100
2005-10-24 10:53 51°7.992 2°32.193 -999 351 14.8 101090 100
2005-10-24 10:54 51°7.831 2°31.948 -999 352 14.8 101080 100
2005-10-24 10:55 51°7.679 2°31.744 -999 16 14.8 101090 100
2005-10-24 10:56 51°7.604 2°31.786 -999 104 14.8 101110 100
2005-10-24 10:57 51°7.627 2°31.868 -999 157 14.7 101140 100
2005-10-24 10:58 51°7.678 2°31.953 -999 154 14.7 101140 100
2005-10-24 10:59 51°7.725 2°32.057 -999 44 14.7 101130 100
2005-10-24 11:00 51°7.767 2°32.171 -999 137 14.8 101130 100
2005-10-24 11:01 51°7.791 2°32.281 -999 125 14.8 101120 100
2005-10-24 11:02 51°7.799 2°32.362 -999 126 14.8 101120 100
2005-10-24 11:03 51°7.806 2°32.437 -999 125 14.8 101120 100
2005-10-24 11:04 51°7.811 2°32.512 -999 118 14.8 101120 100
2005-10-24 11:05 51°7.818 2°32.581 -999 131 14.8 101120 100
2005-10-24 11:06 51°7.83 2°32.646 -999 132 14.8 101120 100
2005-10-24 11:07 51°7.85 2°32.712 -999 146 14.8 101120 100
2005-10-24 11:08 51°7.876 2°32.774 -999 142 14.8 101120 100
2005-10-24 11:09 51°7.902 2°32.835 -999 139 14.9 101120 100
2005-10-24 11:10 51°7.928 2°32.895 -999 154 14.8 101100 100
2005-10-24 11:11 51°7.954 2°32.952 -999 157 14.8 101110 100
2005-10-24 11:12 51°7.986 2°33.005 -999 163 14.8 101120 100
2005-10-24 11:13 51°8.02 2°33.053 -999 166 14.9 101110 100
2005-10-24 11:14 51°8.054 2°33.106 -999 152 14.9 101110 100
2005-10-24 11:15 51°8.082 2°33.163 -999 158 14.9 101110 99
2005-10-24 11:16 51°8.109 2°33.221 -999 148 14.9 101100 99
2005-10-24 11:17 51°8.136 2°33.275 -999 149 14.9 101100 99
2005-10-24 11:18 51°8.162 2°33.329 -999 150 14.9 101090 99
2005-10-24 11:19 51°8.187 2°33.381 -999 150 14.9 101100 99
2005-10-24 11:20 51°8.212 2°33.435 -999 150 15 101090 99
2005-10-24 11:21 51°8.235 2°33.49 -999 141 15 101090 99
2005-10-24 11:22 51°8.255 2°33.546 -999 144 15 101090 99
2005-10-24 11:23 51°8.275 2°33.6 -999 142 15 101090 99
2005-10-24 11:24 51°8.298 2°33.65 -999 153 15 101090 99
2005-10-24 11:25 51°8.322 2°33.701 -999 145 15.1 101090 99
2005-10-24 11:26 51°8.349 2°33.752 -999 152 15 101080 99
2005-10-24 11:27 51°8.371 2°33.808 -999 141 15.1 101080 99
2005-10-24 11:28 51°8.388 2°33.866 -999 138 15.1 101090 99
2005-10-24 11:29 51°8.406 2°33.921 -999 142 15.1 101080 99
2005-10-24 11:30 51°8.427 2°33.977 -999 147 15.1 101090 99
2005-10-24 11:31 51°8.451 2°34.032 -999 149 15.1 101090 99
2005-10-24 11:32 51°8.479 2°34.089 -999 152 15.1 101090 99
2005-10-24 11:33 51°8.507 2°34.145 -999 151 15.1 101090 99
2005-10-24 11:34 51°8.532 2°34.203 -999 142 15.1 101090 99
2005-10-24 11:35 51°8.553 2°34.262 -999 139 15.1 101090 99
2005-10-24 11:36 51°8.574 2°34.323 -999 142 15.1 101090 99
2005-10-24 11:37 51°8.593 2°34.384 -999 137 15.1 101090 99
2005-10-24 11:38 51°8.611 2°34.446 -999 144 15.2 101100 98
2005-10-24 11:39 51°8.629 2°34.509 -999 136 15.2 101100 98
2005-10-24 11:40 51°8.651 2°34.567 -999 143 15.2 101100 98
2005-10-24 11:41 51°8.672 2°34.624 -999 145 15.2 101100 98
2005-10-24 11:42 51°8.686 2°34.683 -999 134 15.2 101100 98
2005-10-24 11:43 51°8.697 2°34.743 -999 127 15.2 101100 98
2005-10-24 11:44 51°8.703 2°34.804 -999 122 15.2 101100 98
2005-10-24 11:45 51°8.703 2°34.853 -999 116 15.2 101100 98
2005-10-24 11:46 51°8.699 2°34.885 -999 106 15.3 101090 98
2005-10-24 11:47 51°8.694 2°34.905 -999 101 15.3 101090 98
2005-10-24 11:48 51°8.688 2°34.93 -999 118 15.3 101100 98
2005-10-24 11:49 51°8.714 2°34.998 -999 173 15.3 101110 98
2005-10-24 11:50 51°8.781 2°35.048 -999 165 15.5 101120 99
2005-10-24 11:51 51°8.825 2°35.113 -999 163 15.4 101100 98
2005-10-24 11:52 51°8.865 2°35.168 -999 162 15.4 101110 98
2005-10-24 11:53 51°8.904 2°35.219 -999 162 15.3 101110 98
2005-10-24 11:54 51°8.934 2°35.275 -999 147 15.3 101100 98
2005-10-24 11:55 51°8.957 2°35.337 -999 147 15.3 101090 98
2005-10-24 11:56 51°8.98 2°35.399 -999 152 15.3 101090 98
2005-10-24 11:57 51°9.005 2°35.462 -999 145 15.3 101090 98
2005-10-24 11:58 51°9.031 2°35.524 -999 148 15.3 101090 98
2005-10-24 11:59 51°9.057 2°35.585 -999 144 15.3 101090 98
2005-10-24 12:00 51°9.082 2°35.647 -999 142 15.3 101090 98
2005-10-24 12:01 51°9.106 2°35.708 -999 147 15.3 101090 98
2005-10-24 12:02 51°9.13 2°35.769 -999 154 15.3 101090 99
2005-10-24 12:03 51°9.155 2°35.832 -999 142 15.3 101090 99
2005-10-24 12:04 51°9.178 2°35.894 -999 147 15.3 101090 99
2005-10-24 12:05 51°9.199 2°35.958 -999 145 15.3 101100 99
2005-10-24 12:06 51°9.22 2°36.023 -999 142 15.3 101100 99
2005-10-24 12:07 51°9.242 2°36.088 -999 145 15.3 101090 99
2005-10-24 12:08 51°9.263 2°36.153 -999 143 15.3 101090 99
2005-10-24 12:09 51°9.284 2°36.218 -999 145 15.3 101100 99
2005-10-24 12:10 51°9.305 2°36.284 -999 141 15.3 101100 99
2005-10-24 12:11 51°9.325 2°36.348 -999 138 15.3 101100 99
2005-10-24 12:12 51°9.346 2°36.413 -999 142 15.3 101090 99
2005-10-24 12:13 51°9.366 2°36.477 -999 146 15.3 101090 99
2005-10-24 12:14 51°9.387 2°36.541 -999 140 15.3 101100 99
2005-10-24 12:15 51°9.408 2°36.607 -999 141 15.4 101090 99
2005-10-24 12:16 51°9.428 2°36.673 -999 147 15.3 101100 99
2005-10-24 12:17 51°9.449 2°36.739 -999 143 15.3 101090 99
2005-10-24 12:18 51°9.471 2°36.805 -999 137 15.3 101080 99
2005-10-24 12:19 51°9.494 2°36.868 -999 143 15.3 101080 99
2005-10-24 12:20 51°9.519 2°36.929 -999 153 15.3 101080 99
2005-10-24 12:21 51°9.548 2°36.987 -999 152 15.3 101090 99
2005-10-24 12:22 51°9.578 2°37.047 -999 153 15.3 101090 99
2005-10-24 12:23 51°9.609 2°37.104 -999 162 15.3 101100 99
2005-10-24 12:24 51°9.639 2°37.162 -999 164 15.3 101100 99
2005-10-24 12:25 51°9.669 2°37.221 -999 156 15.3 101090 99
2005-10-24 12:26 51°9.695 2°37.283 -999 145 15.3 101090 99
2005-10-24 12:27 51°9.712 2°37.349 -999 137 15.3 101100 99
2005-10-24 12:28 51°9.722 2°37.416 -999 226 15.3 101090 99
2005-10-24 12:29 51°9.728 2°37.482 -999 129 15.3 101100 99
2005-10-24 12:30 51°9.729 2°37.549 -999 127 15.3 101090 100
2005-10-24 12:31 51°9.727 2°37.598 -999 107 15.3 101090 100
2005-10-24 12:32 51°9.722 2°37.635 -999 100 15.2 101090 100
2005-10-24 12:33 51°9.718 2°37.661 -999 100 15.3 101080 100
2005-10-24 12:34 51°9.699 2°37.715 -999 84 15.3 101070 100
2005-10-24 12:35 51°9.646 2°37.874 -999 83 15.3 101070 100
2005-10-24 12:36 51°9.611 2°38.058 -999 110 15.3 101080 100
2005-10-24 12:37 51°9.591 2°38.183 -999 105 15.3 101070 100
2005-10-24 12:38 51°9.573 2°38.276 -999 115 15.3 101080 100
2005-10-24 12:39 51°9.561 2°38.36 -999 122 15.4 101070 100
2005-10-24 12:40 51°9.548 2°38.436 -999 113 15.3 101080 100
2005-10-24 12:41 51°9.538 2°38.505 -999 121 15.4 101080 100
2005-10-24 12:42 51°9.533 2°38.572 -999 123 15.4 101080 100
2005-10-24 12:43 51°9.528 2°38.638 -999 126 15.4 101070 100
2005-10-24 12:44 51°9.53 2°38.703 -999 130 15.4 101080 100
2005-10-24 12:45 51°9.537 2°38.77 -999 137 15.4 101080 100
2005-10-24 12:46 51°9.55 2°38.837 -999 142 15.4 101080 100
2005-10-24 12:47 51°9.569 2°38.904 -999 158 15.4 101080 100
2005-10-24 12:48 51°9.592 2°38.97 -999 150 15.4 101090 100
2005-10-24 12:49 51°9.615 2°39.039 -999 148 15.4 101080 100
2005-10-24 12:50 51°9.638 2°39.109 -999 141 15.4 101080 100
2005-10-24 12:51 51°9.658 2°39.18 -999 144 15.4 101080 100
2005-10-24 12:52 51°9.68 2°39.248 -999 140 15.4 101070 100
2005-10-24 12:53 51°9.703 2°39.315 -999 149 15.3 101070 100
2005-10-24 12:54 51°9.724 2°39.384 -999 143 15.3 101070 100
2005-10-24 12:55 51°9.746 2°39.452 -999 151 15.3 101070 100
2005-10-24 12:56 51°9.768 2°39.522 -999 151 15.3 101070 100
2005-10-24 12:57 51°9.789 2°39.591 -999 137 15.3 101060 100
2005-10-24 12:58 51°9.812 2°39.66 -999 155 15.3 101070 100
2005-10-24 12:59 51°9.834 2°39.73 -999 157 15.4 101060 100
2005-10-24 13:00 51°9.858 2°39.798 -999 157 15.4 101060 100
2005-10-24 13:01 51°9.885 2°39.867 -999 150 15.4 101060 100
2005-10-24 13:02 51°9.91 2°39.938 -999 143 15.4 101060 100
2005-10-24 13:03 51°9.934 2°40.01 -999 150 15.4 101060 100
2005-10-24 13:04 51°9.959 2°40.081 -999 143 15.4 101060 100
2005-10-24 13:05 51°9.983 2°40.154 -999 151 15.4 101060 100
2005-10-24 13:06 51°10.008 2°40.226 -999 141 15.4 101060 100
2005-10-24 13:07 51°10.032 2°40.299 -999 148 15.4 101060 100
2005-10-24 13:08 51°10.057 2°40.372 -999 136 15.4 101060 100
2005-10-24 13:09 51°10.081 2°40.445 -999 154 15.5 101060 100
2005-10-24 13:10 51°10.106 2°40.519 -999 152 15.5 101050 100
2005-10-24 13:11 51°10.125 2°40.595 -999 138 15.5 101040 100
2005-10-24 13:12 51°10.136 2°40.671 -999 130 15.5 101050 100
2005-10-24 13:13 51°10.143 2°40.745 -999 124 15.5 101050 100
2005-10-24 13:14 51°10.148 2°40.819 -999 118 15.5 101050 100
2005-10-24 13:15 51°10.146 2°40.889 -999 112 15.5 101040 100
2005-10-24 13:16 51°10.141 2°40.941 -999 95 15.5 101030 100
2005-10-24 13:17 51°10.138 2°40.983 -999 95 15.5 101030 100
2005-10-24 13:18 51°10.137 2°41.018 -999 96 15.5 101040 100
2005-10-24 13:19 51°10.139 2°41.05 -999 90 15.6 101030 100
2005-10-24 13:20 51°10.141 2°41.08 -999 88 15.6 101030 100
2005-10-24 13:21 51°10.139 2°41.12 -999 94 15.6 101030 100
2005-10-24 13:22 51°10.166 2°41.232 -999 198 15.6 101050 100
2005-10-24 13:23 51°10.239 2°41.196 -999 301 15.7 101060 100
2005-10-24 13:24 51°10.201 2°41.02 -999 342 15.6 101010 100
2005-10-24 13:25 51°10.136 2°40.738 -999 340 15.6 101000 100
2005-10-24 13:26 51°10.073 2°40.446 -999 339 15.7 101000 100
2005-10-24 13:27 51°10.01 2°40.154 -999 341 15.7 101010 99
2005-10-24 13:28 51°9.97 2°39.991 -999 341 15.7 101010 99
2005-10-24 13:29 51°9.97 2°39.983 -999 300 15.7 101040 99
2005-10-24 13:30 51°9.982 2°39.995 -999 265 15.8 101060 99
2005-10-24 13:31 51°10.008 2°39.999 -999 247 15.7 101060 99
2005-10-24 13:32 51°10.102 2°40.087 -999 135 15.9 101060 100
2005-10-24 13:33 51°10.197 2°40.39 -999 112 15.9 101050 99
2005-10-24 13:34 51°10.288 2°40.717 -999 112 15.8 101040 99
2005-10-24 13:35 51°10.379 2°41.046 -999 125 15.8 101050 99
2005-10-24 13:36 51°10.47 2°41.374 -999 122 15.8 101040 99
2005-10-24 13:37 51°10.556 2°41.701 -999 109 15.7 101050 99
2005-10-24 13:38 51°10.645 2°42.028 -999 115 15.7 101050 99
2005-10-24 13:39 51°10.734 2°42.355 -999 108 15.7 101050 99
2005-10-24 13:40 51°10.825 2°42.681 -999 112 15.7 101050 99
2005-10-24 13:41 51°10.916 2°43.008 -999 117 15.7 101050 99
2005-10-24 13:42 51°11.002 2°43.343 -999 116 15.7 101040 99
2005-10-24 13:43 51°11.082 2°43.676 -999 101 15.7 101040 99
2005-10-24 13:44 51°11.159 2°44.009 -999 107 15.7 101050 99
2005-10-24 13:45 51°11.233 2°44.346 -999 113 15.7 101040 98
2005-10-24 13:46 51°11.31 2°44.681 -999 112 15.7 101040 98
2005-10-24 13:47 51°11.392 2°45.016 -999 104 15.7 101030 98
2005-10-24 13:48 51°11.47 2°45.35 -999 116 15.7 101040 98
2005-10-24 13:49 51°11.546 2°45.683 -999 105 15.7 101030 98
2005-10-24 13:50 51°11.639 2°46.008 -999 112 15.7 101030 98
2005-10-24 13:51 51°11.73 2°46.332 -999 119 15.7 101040 98
2005-10-24 13:52 51°11.824 2°46.657 -999 118 15.7 101040 98
2005-10-24 13:53 51°11.919 2°46.981 -999 119 15.7 101040 98
2005-10-24 13:54 51°12.02 2°47.303 -999 111 15.7 101030 98
2005-10-24 13:55 51°12.12 2°47.624 -999 117 15.7 101030 98
2005-10-24 13:56 51°12.222 2°47.946 -999 113 15.7 101040 98
2005-10-24 13:57 51°12.324 2°48.269 -999 119 15.7 101030 98
2005-10-24 13:58 51°12.426 2°48.591 -999 112 15.7 101030 98
2005-10-24 13:59 51°12.534 2°48.909 -999 126 15.7 101040 98
2005-10-24 14:00 51°12.645 2°49.225 -999 112 15.7 101030 98
2005-10-24 14:01 51°12.75 2°49.544 -999 98 15.7 101030 98
2005-10-24 14:02 51°12.859 2°49.86 -999 110 15.7 101030 98
2005-10-24 14:03 51°12.969 2°50.179 -999 106 15.7 101020 98
2005-10-24 14:04 51°13.076 2°50.498 -999 119 15.7 101030 98
2005-10-24 14:05 51°13.183 2°50.815 -999 93 15.7 101030 98
2005-10-24 14:06 51°13.299 2°51.129 -999 107 15.6 101030 98
2005-10-24 14:07 51°13.416 2°51.444 -999 93 15.6 101030 98
2005-10-24 14:08 51°13.531 2°51.757 -999 109 15.6 101030 98
2005-10-24 14:09 51°13.649 2°52.073 -999 102 15.6 101030 98
2005-10-24 14:10 51°13.766 2°52.39 -999 105 15.6 101020 98
2005-10-24 14:11 51°13.882 2°52.708 -999 104 15.6 101030 98
2005-10-24 14:12 51°13.993 2°53.03 -999 99 15.6 101020 98
2005-10-24 14:13 51°14.098 2°53.354 -999 110 15.6 101030 98
2005-10-24 14:14 51°14.192 2°53.661 -999 115 15.6 101020 98
2005-10-24 14:15 51°14.286 2°53.946 -999 136 15.6 101020 98
2005-10-24 14:16 51°14.373 2°54.077 -999 159 15.6 101020 98
2005-10-24 14:17 51°14.427 2°54.16 -999 142 15.6 101010 98
2005-10-24 14:18 51°14.453 2°54.248 -999 121 15.6 101010 98
2005-10-24 14:19 51°14.466 2°54.322 -999 113 15.6 101010 98
2005-10-24 14:20 51°14.476 2°54.386 -999 104 15.6 101010 98
2005-10-24 14:21 51°14.468 2°54.53 -999 87 15.6 100990 98
2005-10-24 14:22 51°14.436 2°54.84 -999 79 15.6 101010 98
2005-10-24 14:23 51°14.34 2°55.123 -999 59 15.6 101000 98
2005-10-24 14:24 51°14.214 2°55.338 -999 29 15.6 101020 98
2005-10-24 14:25 51°14.089 2°55.45 -999 23 15.6 101020 98
2005-10-24 14:26 51°13.978 2°55.531 -999 27 15.7 101020 98
2005-10-24 14:27 51°13.869 2°55.61 -999 23 15.7 101020 98
2005-10-24 14:28 51°13.765 2°55.699 -999 41 15.6 101010 98
2005-10-24 14:29 51°13.698 2°55.821 -999 49 15.6 101030 98
2005-10-24 14:30 51°13.649 2°55.939 -999 45 15.6 101030 98
2005-10-24 14:31 51°13.617 2°56.031 -999 96 15.6 101030 98
2005-10-24 14:32 51°13.605 2°56.092 -999 95 15.6 101040 98
2005-10-24 14:33 51°13.602 2°56.098 -999 83 15.6 101040 98